Location: Bakov nad Jizerou
(50.4784°N, 14.9394°E)
Time: 09:32:20
(UTC+00:00)

USA 215 - Pass Details

Date: 16 June 2021
Orbit: 1100 x 1107 km, 123.0° (Epoch: 01 August)

Event Time Altitude Azimuth Distance (km) Brightness Sun altitude
Rises 23:17:12 0° 61° (ENE) 3,923 6.6 -16.1°
Reaches altitude 10° 23:19:41 10° 59° (ENE) 2,964 6.0 -16.0°
Maximum altitude 23:26:10 68° 339° (NNW) 1,179 3.6 -15.9°
Drops below altitude 10° 23:32:38 10° 258° (WSW) 2,958 5.3 -15.8°
Sets 23:35:07 0° 256° (WSW) 3,914 5.9 -15.8°
